Location: Azat
(46.0765°N, 1.7600°E)
Time: 19:33:33
(UTC+00:00)

Terra - Pass Details

Date: 09 April 2020
Orbit: 701 x 703 km, 98.2° (Epoch: 01 June)

Event Time Altitude Azimuth Distance (km) Brightness Sun altitude
Exits shadow 20:29:29 18° 66° (ENE) 1,682 3.5 -19.3°
Maximum altitude 20:29:49 18° 61° (ENE) 1,676 3.5 -19.3°
Drops below altitude 10° 20:33:03 10° 18° (NNE) 2,182 4.6 -19.8°
Sets 20:35:54 0° 0° (N) 3,106 5.7 -20.2°
